• en Suisse
  • Liste des pays
  • À 7 jours
  • Température de l'eau
  • Carte satellitaire
  • Carte météo
  • Widgets météo
  • user-avatar
    Se connecter

    Météo par heure à Lewis

    Ce jour, 14 Décembre, Jeudi

    Heure Température Précipitation Vent Pression Humidité
    00:00 +2°C° 0 mm 8 m/s 724 mmHg 65%
    01:00 +2°C° 0,2 mm 8 m/s 724 mmHg 66%
    02:00 +3°C° 0,2 mm 7 m/s 724 mmHg 66%
    03:00 +3°C° 0,2 mm 6 m/s 724 mmHg 67%
    04:00 +2°C° 0,2 mm 5 m/s 724 mmHg 67%
    05:00 +3°C° 0,2 mm 4 m/s 723 mmHg 68%
    06:00 +3°C° 0 mm 6 m/s 723 mmHg 67%
    07:00 +2°C° 0,1 mm 6 m/s 724 mmHg 68%
    08:00 +2°C° 0,1 mm 6 m/s 724 mmHg 68%
    09:00 +2°C° 0,1 mm 6 m/s 724 mmHg 69%
    10:00 +2°C° 0,8 mm 8 m/s 725 mmHg 71%
    11:00 +2°C° 0,8 mm 9 m/s 725 mmHg 74%
    12:00 +3°C° 0 mm 12 m/s 725 mmHg 73%
    13:00 +3°C° 0,5 mm 12 m/s 726 mmHg 72%
    14:00 +3°C° 0,5 mm 13 m/s 726 mmHg 71%
    15:00 +3°C° 0,5 mm 13 m/s 727 mmHg 71%
    16:00 +4°C° 0,4 mm 15 m/s 728 mmHg 71%
    17:00 +4°C° 0,4 mm 16 m/s 729 mmHg 71%
    18:00 +3°C° 0,4 mm 17 m/s 731 mmHg 72%
    19:00 +4°C° 0,4 mm 16 m/s 732 mmHg 72%
    20:00 +4°C° 0,4 mm 16 m/s 733 mmHg 73%
    21:00 +2°C° 0,4 mm 16 m/s 735 mmHg 73%
    22:00 +2°C° 0,2 mm 15 m/s 736 mmHg 71%
    23:00 +2°C° 0,2 mm 15 m/s 737 mmHg 69%

    Demain, 15 Décembre, Vendredi

    Heure Température Précipitation Vent Pression Humidité
    00:00 +2°C° 0,2 mm 15 m/s 739 mmHg 67%
    01:00 +3°C° 0,1 mm 14 m/s 740 mmHg 67%
    02:00 +3°C° 0,1 mm 13 m/s 741 mmHg 66%
    03:00 +2°C° 0,1 mm 12 m/s 742 mmHg 65%
    04:00 +2°C° 0,1 mm 12 m/s 742 mmHg 66%
    05:00 +2°C° 0,1 mm 11 m/s 743 mmHg 67%
    06:00 +2°C° 0,1 mm 11 m/s 744 mmHg 69%
    07:00 +2°C° 0,1 mm 10 m/s 745 mmHg 68%
    08:00 +2°C° 0,1 mm 10 m/s 746 mmHg 68%
    09:00 +2°C° 0,1 mm 10 m/s 747 mmHg 67%
    10:00 +2°C° 0,1 mm 10 m/s 747 mmHg 66%
    11:00 +2°C° 0,1 mm 10 m/s 748 mmHg 65%
    12:00 +2°C° 0,1 mm 9 m/s 748 mmHg 63%
    13:00 +2°C° 0,2 mm 9 m/s 749 mmHg 64%
    14:00 +1°C° 0,2 mm 10 m/s 749 mmHg 65%
    15:00 +1°C° 0,2 mm 10 m/s 749 mmHg 67%
    16:00 +1°C° 0,1 mm 9 m/s 749 mmHg 66%
    17:00 +1°C° 0,1 mm 9 m/s 750 mmHg 65%
    18:00 +1°C° 0,1 mm 9 m/s 750 mmHg 64%
    19:00 +1°C° 0 mm 8 m/s 750 mmHg 65%
    20:00 +1°C° 0 mm 8 m/s 750 mmHg 67%
    21:00 +2°C° 0 mm 7 m/s 750 mmHg 68%
    22:00 +2°C° 0,1 mm 6 m/s 750 mmHg 69%
    23:00 +2°C° 0,1 mm 6 m/s 750 mmHg 70%

    Après-demain, 16 Décembre, Samedi

    Heure Température Précipitation Vent Pression Humidité
    00:00 +2°C° 0,1 mm 5 m/s 750 mmHg 71%
    01:00 +2°C° 0,1 mm 5 m/s 751 mmHg 72%
    02:00 +3°C° 0,1 mm 4 m/s 751 mmHg 73%
    03:00 +3°C° 0,1 mm 4 m/s 751 mmHg 74%
    04:00 +3°C° 0,2 mm 4 m/s 751 mmHg 75%
    05:00 +3°C° 0,2 mm 4 m/s 751 mmHg 75%
    06:00 +3°C° 0,2 mm 4 m/s 751 mmHg 76%
    07:00 +3°C° 0,1 mm 4 m/s 752 mmHg 77%
    08:00 +3°C° 0,1 mm 4 m/s 752 mmHg 78%
    09:00 +3°C° 0,1 mm 4 m/s 752 mmHg 78%
    10:00 +3°C° 0 mm 3 m/s 753 mmHg 77%
    11:00 +3°C° 0 mm 3 m/s 753 mmHg 76%
    12:00 +3°C° 0 mm 3 m/s 753 mmHg 74%
    13:00 +3°C° 0 mm 3 m/s 753 mmHg 74%
    14:00 +4°C° 0 mm 2 m/s 753 mmHg 73%
    15:00 +4°C° 0 mm 2 m/s 753 mmHg 73%
    16:00 +3°C° 0 mm 3 m/s 753 mmHg 73%
    17:00 +3°C° 0 mm 3 m/s 754 mmHg 74%
    18:00 +4°C° 0 mm 4 m/s 754 mmHg 74%
    19:00 +3°C° 0 mm 5 m/s 754 mmHg 77%
    20:00 +4°C° 0 mm 6 m/s 753 mmHg 81%
    21:00 +4°C° 0 mm 7 m/s 753 mmHg 84%
    22:00 +5°C° 0,2 mm 8 m/s 753 mmHg 85%
    23:00 +5°C° 0,2 mm 9 m/s 752 mmHg 85%

    17 Décembre, Dimanche

    Heure Température Précipitation Vent Pression Humidité
    00:00 +6°C° 0,2 mm 10 m/s 751 mmHg 86%
    01:00 +6°C° 0,5 mm 11 m/s 751 mmHg 88%
    02:00 +6°C° 0,5 mm 11 m/s 750 mmHg 90%
    03:00 +7°C° 0,5 mm 12 m/s 749 mmHg 92%
    04:00 +7°C° 0,9 mm 12 m/s 749 mmHg 92%
    05:00 +7°C° 0,9 mm 11 m/s 748 mmHg 93%
    06:00 +7°C° 0,9 mm 11 m/s 747 mmHg 93%
    07:00 +7°C° 1 mm 11 m/s 747 mmHg 93%
    08:00 +7°C° 1 mm 10 m/s 747 mmHg 93%
    09:00 +7°C° 1 mm 10 m/s 747 mmHg 93%
    10:00 +6°C° 1,4 mm 10 m/s 747 mmHg 88%
    11:00 +6°C° 1,4 mm 10 m/s 748 mmHg 83%
    12:00 +6°C° 1,4 mm 10 m/s 748 mmHg 78%
    13:00 +6°C° 0,1 mm 10 m/s 749 mmHg 75%
    14:00 +5°C° 0,1 mm 10 m/s 750 mmHg 71%
    15:00 +5°C° 0,1 mm 10 m/s 750 mmHg 68%
    16:00 +5°C° 0 mm 9 m/s 751 mmHg 68%
    17:00 +4°C° 0 mm 8 m/s 752 mmHg 68%
    18:00 +4°C° 0 mm 7 m/s 752 mmHg 69%
    19:00 +4°C° 0 mm 6 m/s 753 mmHg 70%
    20:00 +4°C° 0 mm 6 m/s 753 mmHg 71%
    21:00 +5°C° 0 mm 5 m/s 754 mmHg 72%
    22:00 +5°C° 0 mm 5 m/s 754 mmHg 72%
    23:00 +5°C° 0 mm 5 m/s 755 mmHg 73%

    18 Décembre, Lundi

    Heure Température Précipitation Vent Pression Humidité
    00:00 +5°C° 0 mm 5 m/s 755 mmHg 74%
    01:00 +5°C° 0 mm 5 m/s 755 mmHg 75%
    02:00 +5°C° 0 mm 5 m/s 755 mmHg 76%
    03:00 +5°C° 0 mm 5 m/s 756 mmHg 77%
    04:00 +4°C° 0 mm 6 m/s 756 mmHg 79%
    05:00 +5°C° 0 mm 7 m/s 756 mmHg 80%
    06:00 +5°C° 0 mm 7 m/s 756 mmHg 82%
    07:00 +5°C° 0 mm 8 m/s 756 mmHg 85%
    08:00 +6°C° 0 mm 8 m/s 756 mmHg 88%
    09:00 +6°C° 0 mm 9 m/s 756 mmHg 92%
    10:00 +6°C° 0 mm 9 m/s 756 mmHg 92%
    11:00 +7°C° 0 mm 9 m/s 756 mmHg 93%
    12:00 +7°C° 0 mm 9 m/s 756 mmHg 93%
    13:00 +7°C° 0 mm 9 m/s 755 mmHg 92%
    14:00 +7°C° 0 mm 10 m/s 755 mmHg 92%
    15:00 +7°C° 0 mm 10 m/s 755 mmHg 91%
    16:00 +7°C° 0 mm 10 m/s 755 mmHg 92%
    17:00 +7°C° 0 mm 10 m/s 755 mmHg 92%
    18:00 +8°C° 0 mm 11 m/s 755 mmHg 93%
    19:00 +8°C° 0 mm 10 m/s 755 mmHg 93%
    20:00 +8°C° 0 mm 10 m/s 755 mmHg 94%
    21:00 +8°C° 0 mm 10 m/s 755 mmHg 94%
    22:00 +8°C° 0,1 mm 10 m/s 755 mmHg 94%
    23:00 +8°C° 0,1 mm 10 m/s 755 mmHg 95%

    19 Décembre, Mardi

    Heure Température Précipitation Vent Pression Humidité
    00:00 +8°C° 0,1 mm 10 m/s 755 mmHg 95%
    01:00 +8°C° 0,1 mm 11 m/s 754 mmHg 94%
    02:00 +9°C° 0,1 mm 11 m/s 754 mmHg 94%
    03:00 +9°C° 0,1 mm 11 m/s 754 mmHg 93%
    04:00 +9°C° 0 mm 12 m/s 754 mmHg 93%
    05:00 +9°C° 0 mm 12 m/s 754 mmHg 93%
    06:00 +9°C° 0 mm 13 m/s 754 mmHg 93%
    07:00 +9°C° 0 mm 13 m/s 753 mmHg 92%
    08:00 +8°C° 0 mm 13 m/s 753 mmHg 92%
    09:00 +8°C° 0 mm 13 m/s 753 mmHg 91%
    10:00 +8°C° 0,2 mm 13 m/s 753 mmHg 91%
    11:00 +9°C° 0,2 mm 13 m/s 753 mmHg 90%
    12:00 +9°C° 0,2 mm 14 m/s 753 mmHg 90%
    13:00 +8°C° 0,9 mm 13 m/s 754 mmHg 91%
    14:00 +8°C° 0,9 mm 11 m/s 754 mmHg 93%
    15:00 +8°C° 0,9 mm 10 m/s 754 mmHg 94%
    16:00 +7°C° 0,3 mm 9 m/s 755 mmHg 89%
    17:00 +7°C° 0,3 mm 8 m/s 756 mmHg 84%
    18:00 +6°C° 0,3 mm 7 m/s 758 mmHg 79%
    19:00 +6°C° 0 mm 7 m/s 759 mmHg 77%
    20:00 +7°C° 0 mm 6 m/s 760 mmHg 75%
    21:00 +7°C° 0 mm 6 m/s 761 mmHg 73%
    22:00 +6°C° 0 mm 5 m/s 762 mmHg 74%
    23:00 +6°C° 0 mm 5 m/s 762 mmHg 76%
    Voir plus